FW1130 Weather Reports


time (UTC)temp
C
wind
direction
speed
KPH
gust
KPH
rain 1hr
cm
rain 24hr
cm
rain mn
cm
humidity
%
barometer
mb
20260503181836 23 207 0.0 0.0 0.00 0.00 0.00 50 1012.3
20260503181333 23 156 0.0 0.0 0.00 0.00 0.00 50 1012.2
20260503180825 23 135 0.0 0.0 0.00 0.00 0.00 51 1012.2
20260503180332 23 214 0.0 0.0 0.00 0.00 0.00 50 1012.2
20260503175844 23 208 0.0 0.0 0.00 0.00 0.00 48 1012.2
20260503175338 22 201 0.0 0.0 0.00 0.00 0.00 48 1012.3
20260503174829 22 170 0.0 0.0 0.00 0.00 0.00 49 1012.3
20260503174326 22 170 0.0 0.0 0.00 0.00 0.00 48 1012.4
20260503173836 22 170 0.0 0.0 0.00 0.00 0.00 47 1012.4
20260503173326 22 170 0.0 0.0 0.00 0.00 0.00 48 1012.5
20260503172836 21 170 0.0 0.0 0.00 0.00 0.00 47 1012.5
20260503172339 21 170 0.0 0.0 0.00 0.00 0.00 49 1012.6
20260503171856 21 170 0.0 0.0 0.00 0.00 0.00 52 1012.6
20260503171345 20 170 0.0 0.0 0.00 0.00 0.00 53 1012.7
20260503170842 20 170 0.0 0.0 0.00 0.00 0.00 55 1012.7
20260503170330 20 170 0.0 0.0 0.00 0.00 0.00 54 1012.7
20260503150831 16 170 0.0 1.6 0.00 0.00 0.00 70 1013.4
20260503150333 16 170 0.0 0.0 0.00 0.00 0.00 72 1013.5
20260503131323 10 170 0.0 0.0 0.00 0.00 0.00 87 1013.3
20260503130824 10 170 0.0 0.0 0.00 0.00 0.00 87 1013.3
20260503130344 10 170 0.0 0.0 0.00 0.00 0.00 86 1013.3
20260503110341 11 170 0.0 0.0 0.00 0.00 0.00 84 1013.1
20260503090343 12 170 0.0 0.0 0.00 0.00 0.00 81 1013.0
20260503081324 13 170 0.0 0.0 0.00 0.00 0.00 80 1012.9
20260503080840 13 170 0.0 0.0 0.00 0.00 0.00 80 1013.0
20260503080328 13 170 0.0 0.0 0.00 0.00 0.00 80 1012.9
20260503072839 14 170 0.0 0.0 0.00 0.00 0.00 78 1012.7
20260503072359 14 170 0.0 0.0 0.00 0.00 0.00 78 1012.7
20260503071842 14 170 0.0 0.0 0.00 0.00 0.00 78 1012.7
20260503071327 14 170 0.0 0.0 0.00 0.00 0.00 77 1012.8
20260503070851 14 170 0.0 0.0 0.00 0.00 0.00 77 1012.7
20260503070333 15 170 0.0 0.0 0.00 0.00 0.00 77 1012.6
20260503060327 16 170 0.0 0.0 0.00 0.00 0.00 72 1012.3
20260503054832 16 170 0.0 0.0 0.00 0.00 0.00 70 1012.2
20260503054324 16 170 0.0 0.0 0.00 0.00 0.00 70 1012.2
20260503053831 16 170 0.0 0.0 0.00 0.00 0.00 70 1012.1
20260503053327 16 170 0.0 0.0 0.00 0.00 0.00 69 1012.2
20260503052829 16 170 0.0 0.0 0.00 0.00 0.00 69 1012.1
20260503052339 17 170 0.0 0.0 0.00 0.00 0.00 69 1012.1
20260503051848 17 170 0.0 0.0 0.00 0.00 0.00 68 1012.1
20260503051329 17 170 0.0 0.0 0.00 0.00 0.00 67 1012.1
20260503050826 17 170 0.0 0.0 0.00 0.00 0.00 66 1012.1
20260503050341 17 170 0.0 0.0 0.00 0.00 0.00 66 1012.0
20260503045337 17 170 0.0 0.0 0.00 0.00 0.00 65 1012.0
20260503044838 18 170 0.0 0.0 0.00 0.00 0.00 64 1011.9
20260503044323 18 170 0.0 0.0 0.00 0.00 0.00 63 1011.8
20260503043830 18 170 0.0 0.0 0.00 0.00 0.00 62 1011.8
20260503043333 18 170 0.0 0.0 0.00 0.00 0.00 62 1011.9
20260503042829 19 170 0.0 0.0 0.00 0.00 0.00 60 1011.8
20260503042322 19 170 0.0 0.0 0.00 0.00 0.00 59 1011.8
20260503041822 19 170 0.0 0.0 0.00 0.00 0.00 59 1011.7
20260503041344 20 170 0.0 0.0 0.00 0.00 0.00 58 1011.7
20260503040825 20 170 0.0 0.0 0.00 0.00 0.00 57 1011.6
20260503040339 20 170 0.0 0.0 0.00 0.00 0.00 56 1011.6
20260503035828 20 170 0.0 0.0 0.00 0.00 0.00 54 1011.5
20260503035351 20 170 0.0 0.0 0.00 0.00 0.00 54 1011.5
20260503034852 21 170 0.0 0.0 0.00 0.00 0.00 53 1011.4
20260503034355 21 170 0.0 0.0 0.00 0.00 0.00 53 1011.3
20260503033833 21 170 0.0 0.0 0.00 0.00 0.00 52 1011.3
20260503033358 21 170 0.0 0.0 0.00 0.00 0.00 50 1011.2
20260503032828 21 170 0.0 0.0 0.00 0.00 0.00 50 1011.2
20260503032326 22 170 0.0 0.0 0.00 0.00 0.00 50 1011.2
20260503031828 22 170 0.0 0.0 0.00 0.00 0.00 49 1011.1
20260503031332 22 170 0.0 0.0 0.00 0.00 0.00 48 1011.1
20260503030828 22 170 0.0 0.0 0.00 0.00 0.00 47 1011.1
20260503030344 22 170 0.0 0.0 0.00 0.00 0.00 46 1011.1
20260503025830 23 170 0.0 0.0 0.00 0.00 0.00 46 1011.1
20260503025330 23 170 0.0 0.0 0.00 0.00 0.00 45 1011.1
20260503024831 23 234 0.0 0.0 0.00 0.00 0.00 45 1011.0
20260503024327 23 234 0.0 0.0 0.00 0.00 0.00 45 1011.0
20260503023841 23 234 0.0 0.0 0.00 0.00 0.00 44 1011.0
20260503023341 23 234 0.0 0.0 0.00 0.00 0.00 43 1011.0
20260503022824 23 240 0.0 0.0 0.00 0.00 0.00 43 1011.0
20260503022342 23 263 0.0 0.0 0.00 0.00 0.00 43 1011.0
20260503021832 23 311 0.0 0.0 0.00 0.00 0.00 43 1011.0
20260503021405 24 31 0.0 1.6 0.00 0.00 0.00 42 1011.0
20260503020840 24 11 0.0 1.6 0.00 0.00 0.00 42 1011.1
20260503020336 24 148 0.0 0.0 0.00 0.00 0.00 41 1011.1
20260503015844 24 223 0.0 0.0 0.00 0.00 0.00 40 1011.2
20260503015342 25 183 0.0 0.0 0.00 0.00 0.00 39 1011.2
20260503014834 25 261 0.0 4.8 0.00 0.00 0.00 39 1011.3
20260503014334 25 201 0.0 4.8 0.00 0.00 0.00 38 1011.3
20260503013844 26 12 0.0 1.6 0.00 0.00 0.00 38 1011.3
20260503013331 26 290 0.0 1.6 0.00 0.00 0.00 38 1011.4
20260503012824 26 222 0.0 0.0 0.00 0.00 0.00 38 1011.4
20260503012329 26 199 0.0 0.0 0.00 0.00 0.00 38 1011.4
20260503011834 26 215 0.0 1.6 0.00 0.00 0.00 38 1011.5
20260503011323 25 346 0.0 3.2 0.00 0.00 0.00 38 1011.5
20260503010829 25 293 0.0 12.9 0.00 0.00 0.00 38 1011.4
20260503010330 26 239 1.6 12.9 0.00 0.00 0.00 38 1011.5
20260503005838 25 239 0.0 1.6 0.00 0.00 0.00 38 1011.5
20260503005323 25 148 0.0 0.0 0.00 0.00 0.00 41 1011.6
20260503004826 25 212 0.0 4.8 0.00 0.00 0.00 40 1011.6
20260503004324 26 274 0.0 0.0 0.00 0.00 0.00 40 1011.6
20260503003840 26 333 0.0 0.0 0.00 0.00 0.00 40 1011.6
20260503003339 26 335 0.0 0.0 0.00 0.00 0.00 40 1011.7
20260503002825 26 338 0.0 1.6 0.00 0.00 0.00 39 1011.7
20260503002346 26 231 0.0 1.6 0.00 0.00 0.00 40 1011.7
20260503001833 26 281 0.0 0.0 0.00 0.00 0.00 41 1011.8
20260503001403 26 329 0.0 3.2 0.00 0.00 0.00 39 1011.9
20260503000834 26 327 0.0 3.2 0.00 0.00 0.00 39 1011.9
20260503000333 27 335 0.0 0.0 0.00 0.00 0.00 38 1012.0
20260502235829 27 256 0.0 0.0 0.00 0.00 0.00 37 1012.0
20260502235336 27 314 0.0 0.0 0.00 0.00 0.00 38 1012.0
20260502234828 26 240 0.0 0.0 0.00 0.00 0.00 38 1012.1
20260502234328 26 237 0.0 0.0 0.00 0.00 0.00 39 1012.1
20260502233840 26 237 0.0 1.6 0.00 0.00 0.00 40 1012.2
20260502233341 26 349 0.0 6.4 0.00 0.00 0.00 41 1012.2
20260502232823 26 300 0.0 6.4 0.00 0.00 0.00 41 1012.3
20260502232350 26 22 0.0 3.2 0.00 0.00 0.00 40 1012.3
20260502231827 26 206 0.0 9.7 0.00 0.00 0.00 41 1012.3
20260502231332 26 213 0.0 16.1 0.00 0.00 0.00 41 1012.4
20260502230825 26 302 0.0 16.1 0.00 0.00 0.00 40 1012.4
20260502230326 26 300 0.0 1.6 0.00 0.00 0.00 40 1012.5
20260502225831 26 221 0.0 1.6 0.00 0.00 0.00 42 1012.6
20260502225326 25 208 0.0 4.8 0.00 0.00 0.00 42 1012.6
20260502224840 26 349 0.0 0.0 0.00 0.00 0.00 42 1012.8
20260502224338 25 226 0.0 3.2 0.00 0.00 0.00 44 1012.8
20260502223823 25 202 0.0 3.2 0.00 0.00 0.00 44 1012.9
20260502223322 25 227 0.0 1.6 0.00 0.00 0.00 45 1013.0
20260502222855 25 232 0.0 1.6 0.00 0.00 0.00 44 1013.0
20260502222324 25 217 0.0 1.6 0.00 0.00 0.00 45 1013.1
20260502221836 24 229 0.0 0.0 0.00 0.00 0.00 45 1013.2
20260502221401 24 212 0.0 0.0 0.00 0.00 0.00 44 1013.3
20260502220838 23 347 0.0 1.6 0.00 0.00 0.00 44 1013.3
20260502220347 24 354 0.0 1.6 0.00 0.00 0.00 40 1013.4
20260502215842 24 323 0.0 0.0 0.00 0.00 0.00 40 1013.4
20260502215333 23 218 0.0 0.0 0.00 0.00 0.00 43 1013.5
20260502214830 24 198 0.0 0.0 0.00 0.00 0.00 40 1013.6
20260502214341 24 303 0.0 0.0 0.00 0.00 0.00 43 1013.6
20260502213826 24 274 0.0 8.0 0.00 0.00 0.00 45 1013.7
20260502213323 24 287 0.0 8.0 0.00 0.00 0.00 44 1013.8
20260502212854 25 236 0.0 1.6 0.00 0.00 0.00 44 1013.7
20260502212338 24 201 0.0 3.2 0.00 0.00 0.00 45 1013.8
20260502211840 24 248 0.0 3.2 0.00 0.00 0.00 44 1013.8
20260502211343 25 220 0.0 3.2 0.00 0.00 0.00 43 1013.9
20260502210846 24 37 0.0 3.2 0.00 0.00 0.00 44 1013.9
20260502210347 25 243 0.0 0.0 0.00 0.00 0.00 47 1013.9
20260502205844 24 231 0.0 1.6 0.00 0.00 0.00 51 1013.9
20260502205340 24 115 0.0 1.6 0.00 0.00 0.00 54 1014.0
20260502204829 24 309 0.0 1.6 0.00 0.00 0.00 54 1014.0
20260502204326 24 289 0.0 8.0 0.00 0.00 0.00 53 1014.1
20260502203838 24 224 0.0 8.0 0.00 0.00 0.00 52 1014.2
20260502203353 25 236 0.0 0.0 0.00 0.00 0.00 51 1014.2
20260502202836 24 179 0.0 6.4 0.00 0.00 0.00 51 1014.2
20260502202345 24 218 0.0 6.4 0.00 0.00 0.00 51 1014.3
20260502201859 24 287 0.0 4.8 0.00 0.00 0.00 51 1014.3
20260502201340 24 159 0.0 1.6 0.00 0.00 0.00 50 1014.3
20260502200839 24 198 0.0 0.0 0.00 0.00 0.00 52 1014.4
20260502200346 23 240 0.0 1.6 0.00 0.00 0.00 55 1014.4
20260502195823 22 218 0.0 8.0 0.00 0.00 0.00 55 1014.6
20260502195324 22 146 1.6 8.0 0.00 0.00 0.00 55 1014.6
20260502194826 23 203 0.0 1.6 0.00 0.00 0.00 55 1014.7
20260502194323 22 228 0.0 1.6 0.00 0.00 0.00 55 1014.7
20260502193855 22 251 0.0 12.9 0.00 0.00 0.00 56 1014.8
20260502193355 22 148 0.0 12.9 0.00 0.00 0.00 56 1014.8
20260502192842 22 215 0.0 1.6 0.00 0.00 0.00 56 1014.9
20260502192334 21 156 0.0 6.4 0.00 0.00 0.00 58 1014.9
20260502191825 21 177 0.0 6.4 0.00 0.00 0.00 59 1014.9
20260502191330 21 197 0.0 0.0 0.00 0.00 0.00 59 1015.1
20260502190842 22 123 0.0 12.9 0.00 0.00 0.00 58 1015.1
20260502190347 21 213 0.0 12.9 0.00 0.00 0.00 58 1015.1
20260502185835 21 212 0.0 1.6 0.00 0.00 0.00 61 1015.1
20260502185331 21 260 0.0 1.6 0.00 0.00 0.00 61 1015.1
20260502184843 21 228 0.0 9.7 0.00 0.00 0.00 62 1015.1
20260502184324 21 243 0.0 1.6 0.00 0.00 0.00 61 1015.2
20260502183832 21 257 0.0 1.6 0.00 0.00 0.00 62 1015.2
20260502183353 21 208 0.0 1.6 0.00 0.00 0.00 61 1015.3
20260502182840 21 216 0.0 0.0 0.00 0.00 0.00 60 1015.3
20260502182328 21 156 0.0 0.0 0.00 0.00 0.00 61 1015.3